Regional Weather Roundup
Issued by NWS Sterling, VA

Home | Current Version | Previous Version | Text Only | Print | Product List | Glossary On
Versions: 1 2 3 4 5 6 7 8 9 10 11 12 13 14 15 16 17 18 19 20 21 22 23 24 25 26 27 28 29 30 31 32 33 34 35 36 37 38 39 40 41 42 43 44 45 46 47 48 49 50
000
ASUS41 KLWX 292110
RWRLWX

REGIONAL WEATHER ROUNDUP
NATIONAL WEATHER SERVICE BALTIMORE MD/WASHINGTON DC
500 PM EDT SUN MAR 29 2015

Note: "FAIR" indicates few or no clouds below 12,000 feet
with no significant weather and/or obstructions to visibility.
 TC=TEMPERATURE CELSIUS

 * =Non NWS site. Station does not report precipitation (e.g. rain,
    snow, etc.), thunder, or fog.

DCZ001-MDZ009-015-VAZ040>042-051-053>054-292200-
WASHINGTON METRO

CITY           SKY/WX    TMP DP  RH WIND       PRES   REMARKS
WASHINGTON NAT MOSUNNY   48   6  18 VRB5      30.27F
DULLES         MOSUNNY   45   5  19 W3        30.26F
ANDREWS AFB    SUNNY     44   7  22 W9        30.25F
FT BELVOIR     SUNNY     47   3  16 SW5       30.27F
QUANTICO       SUNNY     46  13  26 S7        30.28F
COLLEGE PARK*  SUNNY     45   9  23 W5        30.26F
LEESBURG*      SUNNY     46  14  27 W6        30.26F
MANASSAS*      SUNNY     46   1  15 CALM      30.27F
GAITHERSBURG*  SUNNY     45   9  23 W7        30.29S

$$

MDZ006>007-011-014-292200-
BALTIMORE METRO

CITY           SKY/WX    TMP DP  RH WIND       PRES   REMARKS
BWI AIRPORT    MOSUNNY   46  10  23 W13G18    30.24F
MARTIN STATE   SUNNY     46  10  23 W9        30.26F
ANNAPOLIS      SUNNY     39  22  50 SE14      30.26F

$$

MDZ012-015-019>023-292200-
MARYLAND EASTERN SHORE

CITY           SKY/WX    TMP DP  RH WIND       PRES   REMARKS
OCEAN CITY     SUNNY     44  12  27 N7        30.26F
SALISBURY      SUNNY     42  11  28 W5        30.27F
BAY BRIDGE AP*   N/A     43  12  28 S8        30.27F
CAMBRIDGE*     SUNNY     43   9  24 W5        30.27F
EASTON*        SUNNY     45  12  26 W9        30.30F

$$

MDZ017>025-292200-
SOUTHERN MARYLAND

CITY           SKY/WX    TMP DP  RH WIND       PRES   REMARKS
PATUXENT RIVER MOSUNNY   41  15  35 E6        30.27F
ST INIGOES     SUNNY     43   6  21 W9        30.27F
LEONARDTOWN*   SUNNY     43   5  21 SW5       30.28F

$$

MDZ003>005-292200-
NORTH CENTRAL MARYLAND

CITY           SKY/WX    TMP DP  RH WIND       PRES   REMARKS
FREDERICK*     SUNNY     48  -9   9 SW6       30.28F
HAGERSTOWN APT SUNNY     45   3  17 SW9       30.21F
WESTMINSTER*   SUNNY     43   9  24 SW8       30.23S

$$

MDZ501>502-292200-
WESTERN MARYLAND

CITY           SKY/WX    TMP DP  RH WIND       PRES   REMARKS
OAKLAND*       SUNNY     37  12  35 S6G16     30.11F
CUMBERLAND*    SUNNY     50   9  18 SE12      30.21F

$$

VAZ025>031-292200-
SHENANDOAH VALLEY

CITY           SKY/WX    TMP DP  RH WIND       PRES   REMARKS
WINCHESTER*    SUNNY     50 -17   6 SW8       30.21F
FRONT ROYAL*   FAIR      46   5  18 CALM      30.21F
LURAY*         FAIR      50  12  22 S3        30.21F
NEW MARKET*    FAIR      48   8  20 S3        30.20F
STAUNTON*      SUNNY     48   3  15 S6        30.23F
WAYNESBORO*    FAIR      46   4  17 S5        30.22S

$$

WVZ021-048>050-054>055-292200-
EASTERN WEST VIRGINIA PANHANDLE

CITY           SKY/WX    TMP DP  RH WIND       PRES   REMARKS
MARTINSBURG    SUNNY     48   4  16 S9        30.22F
PETERSBURG*    SUNNY     51  -4  10 CALM      30.17F

$$

VAZ036>039-050-292200-
CENTRAL FOOTHILLS

CITY           SKY/WX    TMP DP  RH WIND       PRES   REMARKS
CHARLOTTESVILL SUNNY     48   3  15 SW9       30.24F
CULPEPER*      SUNNY     48   3  15 S3        30.26F
ORANGE*        SUNNY     50   9  18 SW7       30.27F
GORDONSVILLE*  FAIR      48   4  16 W3        30.24F
WARRENTON*     FAIR      49  17  28 CALM      30.25F

$$

VAZ055>057-292200-
NORTH AND CENTRAL PIEDMONT

CITY           SKY/WX    TMP DP  RH WIND       PRES   REMARKS
FREDERICKSBRG* SUNNY     49   5  16 SW6       30.27S
STAFFORD*      SUNNY     47   0  14 NW7       30.30F

$$

NCZ024-NYZ072-PAZ021-071-VAZ022-071-292200-
OTHER REGIONAL OBSERVATIONS

CITY           SKY/WX    TMP DP  RH WIND       PRES   REMARKS
NEW YORK CITY  SUNNY     45   3  17 W9        30.18F
PHILADELPHIA   SUNNY     45   5  19 SW9       30.22F
PITTSBURGH     PTSUNNY   44   6  21 S15G25    30.11F
ROANOKE        MOSUNNY   51   7  16 S13       30.24F
RICHMOND       MOSUNNY   48   1  14 CALM      30.28F
RALEIGH        MOSUNNY   51  11  20 SW8       30.31F

$$

ANZ530>537-292200-
MARINE OBSERVATIONS

STATION/POSITION TIME  TEMP    WIND        PRES
                       AIR SEA DIR/SP/G
                 (UTC) (F)     (DEG/KT/KT) (MB)
THOMAS PT LIGHT  2100                        N/A
BALT KEY BRIDGE  2000   42     250/  1/  2 1025.0F
COVE POINT       2000   36     120/  3/  4 1025.9F
LEWISETTA        2000   40 44              1026.0F
SOLOMONS ISLAND  2000      44                N/A
PINEY POINT      2000          330/  9/  9   N/A

$$




USA.gov is the U.S. government's official web portal to all federal, state and local government web resources and services.